Retour au catalogue

THOR ABLESTAR DEB

ActifLEO
NORAD 48813·DEBRIS·🇺🇸 United States

Lancé Jun 29, 1961 depuis Cape Canaveral Space Force Station

Loading…

Prochains Passages (prochaines 24 heures)

TLE

FraisSource: Space-Track

Époque: Sep 13, 2026, 11:11 UTC

1 48813U 61015MR  26256.46614544  .00001535  00000-0  24685-2 0  9993
2 48813  66.6422 286.6907 0464533 227.3209 128.7815 13.15126420612680

Suivez THOR ABLESTAR DEB en temps réel avec AllMySat

Download on the App Store